カタログに戻る

STARLINK-32359

運用中通信VLEO
NORAD 61957·PAYLOAD·🇺🇸 United States

打ち上げ Nov 14, 2024 から Vandenberg Space Force Base

Loading…

次のパス (今後24時間)

TLE

最新Source: CelesTrak SupGP

元期: Sep 14, 2026, 20:44 UTC

1 61957C 24209U   26257.86437500 -.00016194  00000+0 -47864-3 0  2571
2 61957  53.1597 334.2464 0001193  84.5339 265.0764 15.34387601    11

AllMySatでSTARLINK-32359をリアルタイム追跡

Download on the App Store